Weather in Buruny

Russia / Astrakhan Oblast     46°11′06″N   47°15′13″E
В апреле 2022 года жителям России запретили посещать сайт meteo.paraplan.net по решению Генеральной прокуратуры. Аудитория сайта уменьшилась в 10 раз. Владельцы сайта не видят смысла в поддержке погодного сервера в таких условиях. Сайт будет закрыт в октябре.
temp.,
°C
wind,
m/s
gust,
m/s
humid.,
%
clouds,
%
prec.,
mm/h
press.,
hPa
HPBL,
m
4 october, tue
tue401:00+17e71189100 3.7 1015611
04:00+17e71278100 4.9 1015631
07:00+19se101573100 0.9 1015899
10:00+19se91263100 0.9 1017713
13:00+21se10114895 0.0 10181076
16:00+20se91145100 0.0 1018941
19:00+18se5950100 0.0 1020594
22:00+17ese4756100 0.0 1020236
5 october, wed
wed501:00+16ese346343 0.0 102083
04:00+16e336076 0.0 102043
07:00+15ese466914 0.0 1020104
10:00+19se57587 0.0 1020409
13:00+23se564997 0.0 10201048
16:00+23se445094 0.0 10201180
19:00+21se3461100 0.0 1021229
22:00+19nnw6870100 0.0 1022367
6 october, thu
thu601:00+17nw6883100 0.0 1023429
04:00+16nnw6881100 0.5 1024489
07:00+16nw5770100 0.0 1024507
10:00+17nw454992 0.1 1025574
13:00+19nw5538100 0.0 10241085
16:00+18wnw453995 0.0 10241291
19:00+17wnw33455 0.0 102545
22:00+15nnw46540 0.0 1025157
7 october, fri
fri701:00+13n22600 0.0 102639
04:00+13nw22600 0.0 102512
07:00+12nw22630 0.0 102622
10:00+16nw23490 0.0 1026449
13:00+18nw22390 0.0 10261307
16:00+19nw12360 0.0 10241452
19:00+18nnw11455 0.0 102511
22:00+16sse11473 0.0 102513
8 october, sat
sat801:00+15ssw33595 0.0 102550
04:00+14s22620 0.0 102514
07:00+13sse22635 0.0 102511
10:00+17ese34485 0.0 1026414
13:00+20ese45395 0.0 10261064
16:00+21se56365 0.0 10241307
19:00+18se69495 0.0 1024415
22:00+15ese611625 0.0 1024372